Weather History for Richlands, VA

Change the Weather History Date:

Thursday, December 13, 2012

  Actual Average (KBLF) Record (KBLF)
Temperature  
Mean Temperature 37 °F 38 °F  
Max Temperature 48 °F 45 °F 68 °F (1984)
Min Temperature 26 °F 30 °F -9 °F (1962)
Degree Days  
Heating Degree Days 28 27  
Month to date heating degree days 333  
Since 1 July heating degree days 1236  
Cooling Degree Days 0 0  
Month to date cooling degree days 0  
Year to date cooling degree days 853  
Moisture  
Dew Point 21 °F    
Average Humidity 56    
Maximum Humidity 100    
Minimum Humidity 34    
Precipitation  
Precipitation 0.00 in 0.10 in 0.85 in (1998)
Month to date precipitation 1.28  
Year to date precipitation 38.00  
Snow  
Snow 0.00 in - - ()
Month to date snowfall  
Since 1 July snowfall  
Snow Depth -    
Sea Level Pressure  
Sea Level Pressure 30.28 in    
Wind  
Wind Speed 2 mph (NE)    
Max Wind Speed 6 mph    
Max Gust Speed -    
Visibility 10 miles    
Events      
T = Trace of Precipitation, MM = Missing Value Source: NWS Daily Summary

Daily Weather History Graph

Daily Weather History Graph

Search for Another Location

Airport:

Trip Planner

Search our weather history database for the weather conditions in past years. The results will help you decide how hot, cold, wet, or windy it might be!

Date:

Astronomy

Dec. 13, 2012 Rise Set
Actual Time 7:32 AM EST 5:10 PM EST
Civil Twilight 7:03 AM EST 5:39 PM EST
Nautical Twilight 6:30 AM EST 6:12 PM EST
Astronomical Twilight 5:59 AM EST 6:44 PM EST
Moon 7:39 AM EST (12/13) 5:51 PM EST (12/13)
Length of Visible Light 10h 36m
Length of Day
9h 38m
Waxing Crescent, 0% of the Moon is Illuminated
Dec 13
Waxing Crescent
Dec 20
First Quarter
Dec 28
Full
Jan 4
Last Quarter
Jan 11
New

Hourly Weather History & Observations

Time (EST) Temp. Windchill Dew Point Humidity Pressure Visibility Wind Dir Wind Speed Gust Speed Precip Events Conditions
12:15 AM 28.4 °F 22.2 °F 28.4 °F 100% 30.26 in 10.0 mi NNE 5.8 mph - N/A   Clear
12:35 AM 26.6 °F 20.0 °F 26.6 °F 100% 30.24 in 10.0 mi East 5.8 mph - N/A   Clear
12:55 AM 28.4 °F 24.6 °F 28.4 °F 100% 30.23 in 10.0 mi East 3.5 mph - N/A   Clear
1:15 AM 28.4 °F 24.6 °F 26.6 °F 93% 30.24 in 10.0 mi ENE 3.5 mph - N/A   Clear
1:35 AM 28.4 °F 24.6 °F 26.6 °F 93% 30.24 in 10.0 mi ENE 3.5 mph - N/A   Clear
1:55 AM 28.4 °F 23.3 °F 26.6 °F 93% 30.25 in 10.0 mi NNE 4.6 mph - N/A   Clear
2:15 AM 28.4 °F 22.2 °F 26.6 °F 93% 30.26 in 10.0 mi NE 5.8 mph - N/A   Clear
2:55 AM 28.4 °F 24.6 °F 24.8 °F 86% 30.26 in 10.0 mi Variable 3.5 mph - N/A   Clear
3:15 AM 28.4 °F - 24.8 °F 86% 30.25 in 10.0 mi Calm Calm - N/A   Clear
3:35 AM 30.2 °F 26.7 °F 23.0 °F 75% 30.26 in 10.0 mi Variable 3.5 mph - N/A   Clear
3:55 AM 30.2 °F - 23.0 °F 75% 30.25 in 10.0 mi Calm Calm - N/A   Clear
4:15 AM 30.2 °F 26.7 °F 21.2 °F 69% 30.24 in 10.0 mi Variable 3.5 mph - N/A   Clear
4:35 AM 28.4 °F 24.6 °F 21.2 °F 74% 30.24 in 10.0 mi Variable 3.5 mph - N/A   Clear
4:55 AM 30.2 °F - 17.6 °F 60% 30.25 in 10.0 mi Calm Calm - N/A   Clear
5:15 AM 30.2 °F - 19.4 °F 64% 30.26 in 10.0 mi Calm Calm - N/A   Clear
5:35 AM 30.2 °F - 17.6 °F 60% 30.26 in 10.0 mi Calm Calm - N/A   Clear
5:55 AM 28.4 °F - 19.4 °F 69% 30.28 in 10.0 mi Calm Calm - N/A   Clear
6:15 AM 30.2 °F - 15.8 °F 55% 30.28 in 10.0 mi Calm Calm - N/A   Clear
6:35 AM 30.2 °F - 15.8 °F 55% 30.29 in 10.0 mi Calm Calm - N/A   Clear
6:55 AM 30.2 °F - 15.8 °F 55% 30.28 in 10.0 mi Calm Calm - N/A   Clear
7:15 AM 30.2 °F - 15.8 °F 55% 30.29 in 10.0 mi Calm Calm - N/A   Clear
7:35 AM 30.2 °F - 17.6 °F 60% 30.29 in 10.0 mi Calm Calm - N/A   Clear
7:55 AM 28.4 °F - 17.6 °F 64% 30.29 in 10.0 mi Calm Calm - N/A   Clear
8:15 AM 32.0 °F - 15.8 °F 51% 30.30 in 10.0 mi Calm Calm - N/A   Clear
8:35 AM 30.2 °F 25.4 °F 17.6 °F 60% 30.31 in 10.0 mi NE 4.6 mph - N/A   Clear
8:55 AM 32.0 °F 28.7 °F 19.4 °F 60% 30.31 in 10.0 mi NE 3.5 mph - N/A   Clear
9:15 AM 33.8 °F - 17.6 °F 52% 30.32 in 10.0 mi Calm Calm - N/A   Clear
9:35 AM 35.6 °F - 17.6 °F 48% 30.32 in 10.0 mi Calm Calm - N/A   Clear
9:55 AM 35.6 °F - 17.6 °F 48% 30.32 in 10.0 mi Calm Calm - N/A   Clear
10:15 AM 37.4 °F - 19.4 °F 48% 30.32 in 10.0 mi Calm Calm - N/A   Clear
10:55 AM 37.4 °F 34.9 °F 23.0 °F 56% 30.33 in 10.0 mi NNW 3.5 mph - N/A   Clear
11:15 AM 39.2 °F - 21.2 °F 49% 30.32 in 10.0 mi Calm Calm - N/A   Clear
11:35 AM 42.8 °F 40.1 °F 19.4 °F 39% 30.31 in 10.0 mi Variable 4.6 mph - N/A   Clear
11:55 AM 44.6 °F 43.1 °F 21.2 °F 39% 30.31 in 10.0 mi Variable 3.5 mph - N/A   Clear
12:15 PM 44.6 °F 42.2 °F 19.4 °F 37% 30.30 in 10.0 mi Variable 4.6 mph - N/A   Clear
12:35 PM 46.4 °F - 21.2 °F 37% 30.30 in 10.0 mi Calm Calm - N/A   Clear
12:55 PM 46.4 °F - 19.4 °F 34% 30.29 in 10.0 mi Calm Calm - N/A   Clear
1:15 PM 46.4 °F 45.2 °F 21.2 °F 37% 30.29 in 10.0 mi Variable 3.5 mph - N/A   Clear
1:35 PM 46.4 °F 45.2 °F 19.4 °F 34% 30.28 in 10.0 mi Variable 3.5 mph - N/A   Clear
1:55 PM 48.2 °F - 21.2 °F 34% 30.28 in 10.0 mi Calm Calm - N/A   Clear
2:15 PM 48.2 °F - 21.2 °F 34% 30.28 in 10.0 mi Calm Calm - N/A   Clear
2:35 PM 46.4 °F - 21.2 °F 37% 30.27 in 10.0 mi Calm Calm - N/A   Clear
2:55 PM 48.2 °F - 21.2 °F 34% 30.27 in 10.0 mi Calm Calm - N/A   Clear
3:15 PM 48.2 °F - 21.2 °F 34% 30.27 in 10.0 mi Calm Calm - N/A   Clear
3:35 PM 48.2 °F - 21.2 °F 34% 30.27 in 10.0 mi Calm Calm - N/A   Clear
3:55 PM 46.4 °F - 21.2 °F 37% 30.26 in 10.0 mi Calm Calm - N/A   Clear
4:15 PM 46.4 °F - 21.2 °F 37% 30.26 in 10.0 mi Calm Calm - N/A   Clear
4:35 PM 46.4 °F - 21.2 °F 37% 30.26 in 10.0 mi Calm Calm - N/A   Clear
4:55 PM 44.6 °F - 21.2 °F 39% 30.27 in 10.0 mi Calm Calm - N/A   Clear
5:15 PM 42.8 °F - 21.2 °F 42% 30.27 in 10.0 mi Calm Calm - N/A   Clear
5:55 PM 42.8 °F - 21.2 °F 42% 30.27 in 10.0 mi Calm Calm - N/A   Clear
6:35 PM 41.0 °F - 24.8 °F 53% 30.28 in 10.0 mi Calm Calm - N/A   Clear
7:55 PM 39.2 °F - 23.0 °F 52% 30.27 in 10.0 mi Calm Calm - N/A   Clear
8:15 PM 39.2 °F - 23.0 °F 52% 30.27 in 10.0 mi Calm Calm - N/A   Clear
8:35 PM 39.2 °F - 23.0 °F 52% 30.27 in 10.0 mi Calm Calm - N/A   Clear
8:55 PM 37.4 °F - 23.0 °F 56% 30.27 in 10.0 mi Calm Calm - N/A   Clear
9:15 PM 37.4 °F - 23.0 °F 56% 30.26 in 10.0 mi Calm Calm - N/A   Clear
9:35 PM 37.4 °F - 21.2 °F 52% 30.27 in 10.0 mi Calm Calm - N/A   Clear
9:55 PM 37.4 °F - 21.2 °F 52% 30.27 in 10.0 mi Calm Calm - N/A   Clear
10:15 PM 37.4 °F - 21.2 °F 52% 30.26 in 10.0 mi Calm Calm - N/A   Clear
10:35 PM 35.6 °F - 23.0 °F 60% 30.26 in 10.0 mi Calm Calm - N/A   Clear
10:55 PM 35.6 °F - 21.2 °F 56% 30.27 in 10.0 mi Calm Calm - N/A   Clear
11:55 PM 35.6 °F - 21.2 °F 56% 30.27 in 10.0 mi Calm Calm - N/A   Clear